DW9919 Weather Reports


time (UTC)temp
C
wind
direction
speed
KPH
gust
KPH
rain 1hr
cm
rain 24hr
cm
rain mn
cm
humidity
%
barometer
mb
20211017161631 18 34 14.5 29.0 0.00 0.00 0.00 49 1022.4
20211017160102 18 64 16.1 33.8 0.00 0.00 0.00 51 1022.6
20211017154601 17 37 19.3 32.2 0.00 0.00 0.00 52 1022.8
20211017153053 17 98 14.5 30.6 0.00 0.00 0.00 54 1022.9
20211017151604 17 15 16.1 30.6 0.00 0.00 0.00 54 1022.9
20211017150110 16 39 8.0 20.9 0.00 0.00 0.00 65 1022.9
20211017144556 16 94 9.7 17.7 0.00 0.00 0.00 63 1023.1
20211017143100 15 71 8.0 16.1 0.00 0.00 0.00 65 1023.1
20211017141604 15 333 8.0 19.3 0.00 0.00 0.00 67 1023.2
20211017140057 14 88 6.4 19.3 0.00 0.00 0.00 71 1023.1
20211017134702 14 49 9.7 19.3 0.00 0.00 0.00 71 1023.1
20211017133045 13 60 9.7 17.7 0.00 0.00 0.00 73 1023.0
20211017131625 13 39 6.4 16.1 0.00 0.00 0.00 76 1022.9
20211017130052 13 67 6.4 22.5 0.00 0.00 0.00 78 1022.7
20211017124537 12 53 9.7 19.3 0.00 0.00 0.00 76 1022.4
20211017123042 12 23 11.3 22.5 0.00 0.00 0.00 77 1022.4
20211017121627 12 354 9.7 17.7 0.00 0.00 0.00 79 1022.2
20211017120034 12 55 6.4 14.5 0.00 0.00 0.00 80 1022.1
20211017114527 12 3 8.0 24.1 0.00 0.00 0.00 79 1022.0
20211017113103 12 50 11.3 20.9 0.00 0.00 0.00 77 1022.0
20211017111547 12 30 11.3 19.3 0.00 0.00 0.00 77 1021.9
20211017110029 12 49 9.7 16.1 0.00 0.00 0.00 77 1021.7
20211017104530 12 44 9.7 20.9 0.00 0.00 0.00 77 1021.5
20211017103014 12 40 11.3 20.9 0.00 0.00 0.00 76 1021.4
20211017101510 12 53 6.4 19.3 0.00 0.00 0.00 77 1021.3
20211017100008 12 26 11.3 22.5 0.00 0.00 0.00 76 1021.2
20211017094512 12 57 12.9 22.5 0.00 0.00 0.00 74 1021.1
20211017093004 13 51 9.7 22.5 0.00 0.00 0.00 76 1021.0
20211017090135 13 1 12.9 22.5 0.00 0.00 0.00 75 1021.0
20211017084726 13 44 14.5 22.5 0.00 0.00 0.00 74 1020.9
20211017083058 13 22 14.5 24.1 0.00 0.00 0.00 73 1020.7
20211017081612 14 25 14.5 27.4 0.00 0.00 0.00 72 1020.5
20211017080145 14 43 16.1 27.4 0.00 0.00 0.00 72 1020.4
20211017074620 14 6 19.3 30.6 0.00 0.00 0.00 71 1020.5
20211017073209 15 34 12.9 22.5 0.00 0.00 0.00 73 1020.5
20211017071621 15 45 12.9 25.7 0.00 0.00 0.00 72 1020.4
20211017070118 15 27 14.5 30.6 0.00 0.00 0.00 70 1020.6
20211017064559 15 340 14.5 30.6 0.00 0.00 0.00 70 1020.5
20211017063117 15 39 17.7 32.2 0.00 0.00 0.00 69 1020.5
20211017061548 15 44 17.7 29.0 0.00 0.00 0.00 69 1020.6
20211017060034 15 347 19.3 29.0 0.00 0.00 0.00 67 1020.6
20211017054559 16 42 17.7 33.8 0.00 0.00 0.00 67 1020.7
20211017053042 16 55 19.3 30.6 0.00 0.00 0.00 65 1020.7
20211017051541 16 48 14.5 32.2 0.00 0.00 0.00 66 1020.7
20211017050051 16 59 12.9 29.0 0.00 0.00 0.00 66 1020.8
20211017044522 16 35 12.9 29.0 0.00 0.00 0.00 66 1020.9
20211017043025 16 31 12.9 29.0 0.00 0.00 0.00 65 1020.9
20211017041557 16 43 14.5 27.4 0.00 0.00 0.00 65 1020.8
20211017040017 16 300 14.5 29.0 0.00 0.00 0.00 68 1021.0
20211017034515 16 62 11.3 24.1 0.00 0.00 0.00 67 1020.8
20211017033011 16 41 12.9 25.7 0.00 0.00 0.00 66 1020.8
20211017031508 16 1 8.0 22.5 0.00 0.00 0.00 67 1020.6
20211017030015 16 15 8.0 27.4 0.00 0.00 0.00 66 1020.6
20211017024505 17 17 9.7 27.4 0.00 0.00 0.00 66 1020.5
20211017023203 17 354 9.7 22.5 0.00 0.00 0.00 64 1020.4
20211017021653 17 345 8.0 22.5 0.00 0.00 0.00 65 1020.3
20211017020118 17 349 9.7 19.3 0.00 0.00 0.00 65 1020.1
20211017014627 17 347 8.0 17.7 0.00 0.00 0.00 65 1019.8
20211017013109 18 325 3.2 17.7 0.00 0.00 0.00 61 1019.6
20211017011609 18 22 11.3 22.5 0.00 0.00 0.00 59 1019.4
20211017010045 18 62 9.7 24.1 0.00 0.00 0.00 58 1019.2
20211017004546 19 12 14.5 27.4 0.00 0.00 0.00 57 1019.0
20211017003042 19 26 14.5 33.8 0.00 0.00 0.00 58 1018.8
20211017001556 20 66 14.5 29.0 0.00 0.00 0.00 57 1018.6
20211017000032 20 31 14.5 24.1 0.00 0.00 0.00 57 1018.3
20211016234531 20 12 11.3 25.7 0.00 0.00 0.00 57 1018.0
20211016233028 20 3 9.7 24.1 0.00 0.00 0.00 58 1017.8
20211016231519 21 46 8.0 16.1 0.00 0.00 0.00 59 1017.5
20211016230106 21 34 14.5 25.7 0.00 0.00 0.00 56 1017.1
20211016224518 22 29 11.3 27.4 0.00 0.00 0.00 57 1016.8
20211016223022 22 254 9.7 22.5 0.00 0.00 0.00 56 1016.6
20211016221520 22 15 14.5 35.4 0.00 0.00 0.00 52 1016.5
20211016220017 22 357 17.7 30.6 0.00 0.00 0.00 55 1016.2
20211016214530 22 1 17.7 30.6 0.00 0.00 0.00 53 1016.2
20211016213015 23 26 14.5 27.4 0.00 0.00 0.00 53 1016.2
20211016211524 23 48 14.5 29.0 0.00 0.00 0.00 55 1016.1
20211016210038 23 60 17.7 29.0 0.00 0.00 0.00 59 1015.9
20211016204533 23 6 14.5 24.1 0.00 0.00 0.00 59 1016.1
20211016203011 23 24 14.5 32.2 0.00 0.00 0.00 62 1016.1
20211016201514 23 349 9.7 22.5 0.00 0.00 0.00 59 1016.0
20211016200009 23 36 14.5 24.1 0.00 0.00 0.00 60 1016.1
20211016194508 23 33 11.3 29.0 0.00 0.00 0.00 63 1016.1
20211016193005 23 349 16.1 27.4 0.00 0.00 0.00 62 1016.0
20211016191524 23 20 9.7 27.4 0.00 0.00 0.00 65 1015.8
20211016190008 23 311 9.7 25.7 0.00 0.00 0.00 64 1015.9
20211016184503 23 34 12.9 24.1 0.00 0.00 0.00 65 1016.0
20211016183002 23 18 14.5 32.2 0.00 0.00 0.00 66 1016.1
20211016181501 22 344 16.1 29.0 0.00 0.00 0.00 68 1016.2
20211016180141 22 350 16.1 32.2 0.00 0.00 0.00 72 1016.4
20211016174633 22 52 14.5 27.4 0.00 0.00 0.00 74 1016.5
20211016173142 21 54 12.9 29.0 0.00 0.00 0.00 80 1016.6
20211016171758 21 47 16.1 32.2 0.00 0.00 0.00 81 1016.7
20211016170114 21 357 14.5 29.0 0.00 0.00 0.00 86 1016.9
20211016164734 20 313 20.9 32.2 0.00 0.00 0.00 88 1017.1
20211016163101 20 323 16.1 27.4 0.00 0.00 0.00 89 1017.2